Location: Unspecified
(17.6330°N, 0.0000°E)
Time: 17:41:22
(UTC+00:00)

A-11 Canister half - Pass Details

Date: 20 June 2019
Orbit: 1514 x 1686 km, 47.2° (Epoch: 24 August)

Event Time Altitude Azimuth Distance (km) Brightness Sun altitude
Rises 07:57:01 0° 202° (SSW) 4,929 11.3 32.9°
Reaches altitude 10° 08:00:27 10° 195° (SSW) 3,941 11.0 33.7°
Maximum altitude 08:09:46 42° 128° (SE) 2,241 10.8 35.8°
Drops below altitude 10° 08:18:54 10° 61° (ENE) 3,879 12.3 37.9°
Sets 08:22:13 0° 55° (NE) 4,845 12.4 38.6°
